Meteor 2-4 Rocket - Orbit

View from above orbital plane
View from above orbital plane
View from above satellite
View from above satellite

Ground track
Ground track

The orbit data is extracted from the following two-line orbital elements,

1 11289U 79021B   13168.47921660 -.00000180  00000-0 -10419-3 0  3919
2 11289 081.2459 149.0451 0076479 058.4007 089.7223 14.11363069764779
Epoch (UTC): 17 June 2013 11:30:04
Eccentricity: 0.0076479
inclination: 81.2459°
perigee height: 799 km
apogee height: 910 km
right ascension of ascending node: 149.0451°
argument of perigee: 58.4007°
revolutions per day: 14.11363069
mean anomaly at epoch: 89.7223°
orbit number at epoch: 76477

The dashed part of the orbit path shows where the satellite is in the earth's shadow,  

Developed and maintained by Chris Peat, Heavens-Above GmbH. Please read the updated FAQ before sending e-mail. Imprint. DLR